Orbital Elements at Epoch 2459200.5 (2020-Dec-17.0) TDB
Reference: JPL 9 (heliocentric ecliptic J2000)
Element | Value | Uncertainty (1-sigma) | Units |
e | .6359932072787449 | 0.00051536 | |
a | 2.288032032829746 | 0.0029915 | au |
q | .8328592019138495 | 9.0249e-05 | au |
i | .1263429022027774 | 7.2298e-05 | deg |
node | 161.927238072139 | 0.0044599 | deg |
peri | 55.05609834973303 | 0.0062648 | deg |
M | 288.8143053874179 | 1.9965 | deg |
tp | 2459450.466496812639 (2021-Aug-23.96649681) | 7.501 | TDB |
period | 1264.129532517682 3.46 | 2.4792 0.006788 | d yr |
n | .284780942727453 | 0.0005585 | deg/d |
Q | 3.743204863745643 | 0.004894 | au |
|
| | Orbit Determination Parameters
Additional Information
|